Content
SEND FEEDBACK

Daily
Averages
Monthly
Summary
United States of America

MANGILAO, GUAM


Home > North America > United States > Guam
Elevation: 60 feet     Latitude: 13 27N     Longitude: 144 49E

WEATHER
 
SELECT A DAY
Number of Records: 350,245;   Date Range: 1/1/95 - 9/30/14
 
SHARE

PRINT THIS DATA

[ ← Previous Day ]
WEATHER ALMANAC - JULY 30, 2014
[ Next Day → ]
[ °C ]   °F
Weather ElementAverageHighLow
Temperature74.1 °F77 °F (9:25 am) (6:02 pm)
Dewpoint72.5 °F75.2 °F (12:18 am) (7:00 pm)
Humidity94.7 %100 % (6:08 am)89 % (12:13 am)
Barometer29.05 in29.84 in (1:58 am) (7:00 pm)
Wind Speed13.4 mph31.1 mph (2:58 am)
Wind Gust52.9 mph (9:08 am)
Weather ElementAverage
Visibility4.1 mi
Wind DirectionSSW (207.1 °)

Weather ElementTotal
Precipitation20.88 in
Heating Degree Days26.5 (Base 65)
Averaged from 370 records on July 30, 2014
WEATHER CONDITIONS BREAKOUT
WIND DIRECTION BREAKOUT
WEATHER BY HOUR - JULY 30, 2014
[ °C ]   °F
Local TimeTemperatureDewpointHumidityBarometerVisibilityWind DirectionWind SpeedGust SpeedPrecipitationEventsConditions
12:18 AM75.2 °F75.2 °F100 %29.78 in3.0 miNW (310°)27.6 mph32.2 mphRainHeavy Rain
12:18 AM75.2 °F75.2 °F100 %29.78 in3.0 miNW (310°)27.6 mph32.2 mphRainHeavy Rain
12:53 AM75.2 °F75.2 °F100 %29.82 in0.8 miNorth (360°)17.3 mph39.1 mphRainHeavy Rain
12:53 AM75.2 °F75.2 °F100 %29.82 in0.8 miNorth (360°)17.3 mph39.1 mphRainHeavy Rain
12:54 AM75.2 °F75.2 °F100 %29.83 in0.8 miNorth (10°)20.7 mph39.1 mphRainHeavy Rain
12:54 AM75.2 °F75.2 °F100 %29.83 in0.8 miNorth (10°)20.7 mph39.1 mphRainHeavy Rain
12:58 AM75.2 °F75.2 °F100 %29.81 in0.5 miNNW (340°)19.6 mph39.1 mph0.64 inFog-RainHeavy Rain
12:58 AM75.2 °F75.2 °F100 %29.81 in0.5 miNNW (340°)19.6 mph39.1 mph0.64 inFog-RainHeavy Rain
12:59 AM75.2 °F75.2 °F100 %29.84 in0.5 miNNW (330°)26.5 mph39.1 mphFog-RainHeavy Rain
12:59 AM75.2 °F75.2 °F100 %29.84 in0.5 miNNW (330°)26.5 mph39.1 mphFog-RainHeavy Rain
1:00 AM75.2 °F75.2 °F100 %29.84 in0.5 miNW (320°)27.6 mph38.0 mphFog-Rain-ThunderstormHeavy Thunderstorms and Rain
1:00 AM75.2 °F75.2 °F100 %29.84 in0.5 miNW (320°)27.6 mph38.0 mphFog-Rain-ThunderstormHeavy Thunderstorms and Rain
1:05 AM75.2 °F75.2 °F100 %29.82 in0.8 miNW (310°)31.1 mph36.8 mphRain-ThunderstormHeavy Thunderstorms and Rain
1:05 AM75.2 °F75.2 °F100 %29.82 in0.8 miNW (310°)31.1 mph36.8 mphRain-ThunderstormHeavy Thunderstorms and Rain
1:10 AM75.2 °F75.2 °F100 %29.79 in1.2 miNW (310°)27.6 mph39.1 mphRain-ThunderstormHeavy Thunderstorms and Rain
1:10 AM75.2 °F75.2 °F100 %29.79 in1.2 miNW (310°)27.6 mph39.1 mphRain-ThunderstormHeavy Thunderstorms and Rain
1:15 AM75.2 °F73.4 °F94 %29.78 in3.0 miNW (310°)21.9 mph39.1 mphRain-ThunderstormThunderstorms and Rain
1:15 AM75.2 °F73.4 °F94 %29.78 in3.0 miNW (310°)21.9 mph39.1 mphRain-ThunderstormThunderstorms and Rain
1:21 AM75.2 °F73.4 °F94 %29.79 in9.0 miNW (320°)23.0 mph35.7 mphRainLight Rain
1:21 AM75.2 °F73.4 °F94 %29.79 in9.0 miNW (320°)23.0 mph35.7 mphRainLight Rain
1:26 AM75.2 °F73.4 °F94 %29.79 in7.0 miNW (320°)26.5 mph35.7 mphRainRain
1:26 AM75.2 °F73.4 °F94 %29.79 in7.0 miNW (320°)26.5 mph35.7 mphRainRain
1:36 AM75.2 °F73.4 °F94 %29.79 in10.0 miNW (310°)24.2 mph34.5 mphRainLight Rain
1:36 AM75.2 °F73.4 °F94 %29.79 in10.0 miNW (310°)24.2 mph34.5 mphRainLight Rain
1:46 AM75.2 °F73.4 °F94 %29.78 in10.0 miNW (320°)24.2 mph33.4 mphRainLight Rain
1:46 AM75.2 °F73.4 °F94 %29.78 in10.0 miNW (320°)24.2 mph33.4 mphRainLight Rain
1:56 AM75.2 °F73.4 °F94 %29.76 in10.0 miNW (320°)27.6 mph38.0 mphOvercast
1:56 AM75.2 °F73.4 °F94 %29.76 in10.0 miNW (320°)27.6 mph38.0 mphOvercast
1:58 AM75.2 °F73.4 °F94 %29.73 in10.0 miNW (310°)26.5 mph38.0 mph0.90 inMostly Cloudy
1:58 AM75.2 °F73.4 °F94 %29.73 in10.0 miNW (310°)26.5 mph38.0 mph0.90 inMostly Cloudy
2:08 AM75.2 °F73.4 °F94 %29.76 in10.0 miNW (310°)27.6 mph33.4 mphMostly Cloudy
2:08 AM75.2 °F73.4 °F94 %29.76 in10.0 miNW (310°)27.6 mph33.4 mphMostly Cloudy
2:13 AM75.2 °F73.4 °F94 %29.76 in10.0 miNW (310°)23.0 mph33.4 mphMostly Cloudy
2:13 AM75.2 °F73.4 °F94 %29.76 in10.0 miNW (310°)23.0 mph33.4 mphMostly Cloudy
2:18 AM75.2 °F73.4 °F94 %29.76 in10.0 miNW (310°)25.3 mph32.2 mphScattered Clouds
2:18 AM75.2 °F73.4 °F94 %29.76 in10.0 miNW (310°)25.3 mph32.2 mphScattered Clouds
2:23 AM75.2 °F73.4 °F94 %29.75 in10.0 miNW (310°)25.3 mph31.1 mphMostly Cloudy
2:23 AM75.2 °F73.4 °F94 %29.75 in10.0 miNW (310°)25.3 mph31.1 mphMostly Cloudy
2:28 AM75.2 °F73.4 °F94 %29.74 in10.0 miNW (310°)28.8 mph38.0 mphMostly Cloudy
2:28 AM75.2 °F73.4 °F94 %29.74 in10.0 miNW (310°)28.8 mph38.0 mphMostly Cloudy
2:58 AM75.7 °F73.9 °F94 %29.71 in10.0 miNW (310°)26.5 mph39.1 mph0.00 inMostly Cloudy
2:58 AM75.7 °F73.9 °F94 %29.71 in10.0 miNW (310°)26.5 mph39.1 mph0.00 inMostly Cloudy
3:03 AM75.2 °F73.4 °F94 %29.74 in10.0 miNW (310°)24.2 mph39.1 mphMostly Cloudy
3:03 AM75.2 °F73.4 °F94 %29.74 in10.0 miNW (310°)24.2 mph39.1 mphMostly Cloudy
3:33 AM77.0 °F75.2 °F94 %29.73 in10.0 miNW (310°)21.9 mph32.2 mphMostly Cloudy
3:33 AM77.0 °F75.2 °F94 %29.73 in10.0 miNW (310°)21.9 mph32.2 mphMostly Cloudy
3:58 AM77.0 °F73.4 °F89 %29.71 in10.0 miNW (310°)23.0 mph33.4 mphOvercast
3:58 AM77.0 °F73.4 °F89 %29.71 in10.0 miNW (310°)23.0 mph33.4 mphOvercast
4:03 AM77.0 °F73.4 °F89 %29.73 in10.0 miNW (310°)23.0 mph31.1 mphMostly Cloudy
4:03 AM77.0 °F73.4 °F89 %29.73 in10.0 miNW (310°)23.0 mph31.1 mphMostly Cloudy
4:21 AM77.0 °F73.4 °F89 %29.73 in10.0 miNNW (340°)1.2 mphLight Drizzle
4:21 AM77.0 °F73.4 °F89 %29.73 in10.0 miNNW (340°)1.2 mphLight Drizzle
4:30 AM77.0 °F75.2 °F94 %29.73 in10.0 miCalmScattered Clouds
4:30 AM77.0 °F75.2 °F94 %29.73 in10.0 miCalmScattered Clouds
4:45 AM77.0 °F75.2 °F94 %29.72 in10.0 miCalmMostly Cloudy
4:45 AM77.0 °F75.2 °F94 %29.72 in10.0 miCalmMostly Cloudy
4:46 AM77.0 °F75.2 °F94 %29.72 in10.0 miCalmLight Drizzle
4:46 AM77.0 °F75.2 °F94 %29.72 in10.0 miCalmLight Drizzle
4:56 AM77.0 °F75.2 °F94 %29.72 in4.0 miVariable1.2 mphRainRain
4:56 AM77.0 °F75.2 °F94 %29.72 in4.0 miVariable1.2 mphRainRain
4:58 AM77.0 °F75.2 °F94 %29.69 in4.0 miNNE (30°)1.2 mph0.01 inRainHeavy Rain
4:58 AM77.0 °F75.2 °F94 %29.69 in4.0 miNNE (30°)1.2 mph0.01 inRainHeavy Rain
5:23 AM77.0 °F75.2 °F94 %29.71 in4.0 miNNE (30°)1.2 mphRainHeavy Rain
5:23 AM77.0 °F75.2 °F94 %29.71 in4.0 miNNE (30°)1.2 mphRainHeavy Rain
5:28 AM75.2 °F73.4 °F94 %29.71 in4.0 miNorth (360°)1.2 mphRainHeavy Rain
5:28 AM75.2 °F73.4 °F94 %29.71 in4.0 miNorth (360°)1.2 mphRainHeavy Rain
5:32 AM75.2 °F73.4 °F94 %29.70 in5.0 miNorth (10°)1.2 mphRainLight Rain
5:32 AM75.2 °F73.4 °F94 %29.70 in5.0 miNorth (10°)1.2 mphRainLight Rain
5:37 AM75.2 °F73.4 °F94 %29.71 in5.0 miWest (280°)16.1 mph20.7 mphRainLight Rain
5:37 AM75.2 °F73.4 °F94 %29.71 in5.0 miWest (280°)16.1 mph20.7 mphRainLight Rain
5:42 AM77.0 °F75.2 °F94 %29.71 in2.5 miWNW (290°)12.7 mph21.9 mphRainHeavy Rain
5:42 AM77.0 °F75.2 °F94 %29.71 in2.5 miWNW (290°)12.7 mph21.9 mphRainHeavy Rain
5:56 AM75.2 °F73.4 °F94 %29.70 in1.2 miVariable1.2 mphRainHeavy Rain
5:56 AM75.2 °F73.4 °F94 %29.70 in1.2 miVariable1.2 mphRainHeavy Rain
5:58 AM75.6 °F73.8 °F94 %29.66 in1.2 miWNW (290°)16.1 mph25.3 mph0.55 inRainHeavy Rain
5:58 AM75.6 °F73.8 °F94 %29.66 in1.2 miWNW (290°)16.1 mph25.3 mph0.55 inRainHeavy Rain
6:04 AM75.2 °F73.4 °F94 %29.69 in5.0 miWest (280°)15.0 mph25.3 mphRainHeavy Rain
6:04 AM75.2 °F73.4 °F94 %29.69 in5.0 miWest (280°)15.0 mph25.3 mphRainHeavy Rain
6:29 AM77.0 °F75.2 °F94 %29.68 in2.0 miWest (280°)18.4 mph27.6 mphRainHeavy Rain
6:29 AM77.0 °F75.2 °F94 %29.68 in2.0 miWest (280°)18.4 mph27.6 mphRainHeavy Rain
6:34 AM77.0 °F75.2 °F94 %29.68 in1.2 miWest (280°)18.4 mph27.6 mphRainHeavy Rain
6:34 AM77.0 °F75.2 °F94 %29.68 in1.2 miWest (280°)18.4 mph27.6 mphRainHeavy Rain
6:39 AM77.0 °F75.2 °F94 %29.69 in0.8 miWest (280°)29.9 mph31.1 mphRainHeavy Rain
6:39 AM77.0 °F75.2 °F94 %29.69 in0.8 miWest (280°)29.9 mph31.1 mphRainHeavy Rain
6:44 AM77.0 °F75.2 °F94 %29.69 in0.5 miWNW (290°)16.1 mph33.4 mphFog-RainHeavy Rain
6:44 AM77.0 °F75.2 °F94 %29.69 in0.5 miWNW (290°)16.1 mph33.4 mphFog-RainHeavy Rain
6:49 AM77.0 °F75.2 °F94 %29.69 in0.8 miVariable1.2 mphRainHeavy Rain
6:49 AM77.0 °F75.2 °F94 %29.69 in0.8 miVariable1.2 mphRainHeavy Rain
6:54 AM77.0 °F75.2 °F94 %29.68 in0.8 miVariable1.2 mphRainHeavy Rain
6:54 AM77.0 °F75.2 °F94 %29.68 in0.8 miVariable1.2 mphRainHeavy Rain
6:58 AM77.0 °F75.2 °F94 %29.65 in0.5 miWest (280°)21.9 mph33.4 mph0.54 inFog-RainHeavy Rain
6:58 AM77.0 °F75.2 °F94 %29.65 in0.5 miWest (280°)21.9 mph33.4 mph0.54 inFog-RainHeavy Rain
7:03 AM77.0 °F75.2 °F94 %29.68 in1.2 miWest (280°)17.3 mph31.1 mphRainHeavy Rain
7:03 AM77.0 °F75.2 °F94 %29.68 in1.2 miWest (280°)17.3 mph31.1 mphRainHeavy Rain
7:08 AM77.0 °F75.2 °F94 %29.68 in0.8 miWest (280°)27.6 mphRainHeavy Rain
7:08 AM77.0 °F75.2 °F94 %29.68 in0.8 miWest (280°)27.6 mphRainHeavy Rain
7:24 AM0.0 °F0.0 °F0.00 inCalm
7:24 AM0.0 °F0.0 °F0.00 inCalm
7:25 AM77.0 °F75.2 °F94 %29.68 in5.0 miNorth (10°)1.2 mphRainRain
7:25 AM77.0 °F75.2 °F94 %29.68 in5.0 miNorth (10°)1.2 mphRainRain
7:35 AM77.0 °F75.2 °F94 %29.68 in4.0 miVariable2.3 mphRainRain
7:35 AM77.0 °F75.2 °F94 %29.68 in4.0 miVariable2.3 mphRainRain
7:47 AM75.2 °F75.2 °F100 %29.67 in1.0 miNNE (20°)1.2 mphRainHeavy Rain
7:47 AM75.2 °F75.2 °F100 %29.67 in1.0 miNNE (20°)1.2 mphRainHeavy Rain
7:52 AM77.0 °F75.2 °F94 %29.66 in0.5 miVariable1.2 mphFog-RainHeavy Rain
7:52 AM77.0 °F75.2 °F94 %29.66 in0.5 miVariable1.2 mphFog-RainHeavy Rain
7:57 AM77.0 °F75.2 °F94 %29.66 in0.5 miVariable3.5 mphFog-RainHeavy Rain
7:57 AM77.0 °F75.2 °F94 %29.66 in0.5 miVariable3.5 mphFog-RainHeavy Rain
7:58 AM77.0 °F75.2 °F94 %29.63 in0.8 miVariable4.6 mph0.47 inRainHeavy Rain
7:58 AM77.0 °F75.2 °F94 %29.63 in0.8 miVariable4.6 mph0.47 inRainHeavy Rain
8:03 AM77.0 °F75.2 °F94 %29.66 in1.0 miNNE (20°)2.3 mphRainLight Rain
8:03 AM77.0 °F75.2 °F94 %29.66 in1.0 miNNE (20°)2.3 mphRainLight Rain
8:08 AM77.0 °F75.2 °F94 %29.66 in1.2 miVariable2.3 mphRainHeavy Rain
8:08 AM77.0 °F75.2 °F94 %29.66 in1.2 miVariable2.3 mphRainHeavy Rain
8:18 AM77.0 °F75.2 °F94 %29.66 in3.0 miNNE (30°)2.3 mphRainRain
8:18 AM77.0 °F75.2 °F94 %29.66 in3.0 miNNE (30°)2.3 mphRainRain
8:23 AM77.0 °F75.2 °F94 %29.67 in2.5 miVariable1.2 mphRainLight Rain
8:23 AM77.0 °F75.2 °F94 %29.67 in2.5 miVariable1.2 mphRainLight Rain
8:28 AM77.0 °F75.2 °F94 %29.66 in1.8 miNorth (350°)1.2 mphRainHeavy Rain
8:28 AM77.0 °F75.2 °F94 %29.66 in1.8 miNorth (350°)1.2 mphRainHeavy Rain
8:33 AM77.0 °F75.2 °F94 %29.66 in2.0 miVariable2.3 mphRainHeavy Rain
8:33 AM77.0 °F75.2 °F94 %29.66 in2.0 miVariable2.3 mphRainHeavy Rain
8:43 AM77.0 °F75.2 °F94 %29.67 in1.0 miVariable1.2 mphRainLight Rain
8:43 AM77.0 °F75.2 °F94 %29.67 in1.0 miVariable1.2 mphRainLight Rain
8:48 AM77.0 °F75.2 °F94 %29.68 in0.2 miNE (40°)2.3 mphFog-RainLight Rain
8:48 AM77.0 °F75.2 °F94 %29.68 in0.2 miNE (40°)2.3 mphFog-RainLight Rain
8:53 AM77.0 °F75.2 °F94 %29.68 in0.2 miNorth (10°)1.2 mphFog-RainHeavy Rain
8:53 AM77.0 °F75.2 °F94 %29.68 in0.2 miNorth (10°)1.2 mphFog-RainHeavy Rain
8:58 AM77.0 °F75.2 °F94 %29.61 in0.2 miNorth (360°)1.2 mph0.63 inFog-RainHeavy Rain
8:58 AM77.0 °F75.2 °F94 %29.61 in0.2 miNorth (360°)1.2 mph0.63 inFog-RainHeavy Rain
9:03 AM77.0 °F75.2 °F94 %29.67 in0.5 miVariable1.2 mphFog-RainHeavy Rain
9:03 AM77.0 °F75.2 °F94 %29.67 in0.5 miVariable1.2 mphFog-RainHeavy Rain
9:08 AM77.0 °F75.2 °F94 %29.68 in0.2 miWest (280°)20.7 mph52.9 mphFog-RainHeavy Rain
9:08 AM77.0 °F75.2 °F94 %29.68 in0.2 miWest (280°)20.7 mph52.9 mphFog-RainHeavy Rain
9:13 AM75.2 °F75.2 °F100 %29.68 in0.2 miWest (280°)18.4 mph29.9 mphFog-RainHeavy Rain
9:13 AM75.2 °F75.2 °F100 %29.68 in0.2 miWest (280°)18.4 mph29.9 mphFog-RainHeavy Rain
9:23 AM75.2 °F75.2 °F100 %29.68 in0.5 miWest (280°)23.0 mph34.5 mphFog-RainHeavy Rain
9:23 AM75.2 °F75.2 °F100 %29.68 in0.5 miWest (280°)23.0 mph34.5 mphFog-RainHeavy Rain
9:34 AM75.2 °F75.2 °F100 %29.68 in0.2 miWNW (290°)21.9 mph31.1 mphFog-RainHeavy Rain
9:34 AM75.2 °F75.2 °F100 %29.68 in0.2 miWNW (290°)21.9 mph31.1 mphFog-RainHeavy Rain
9:39 AM75.2 °F75.2 °F100 %29.68 in0.5 miWest (280°)15.0 mph29.9 mphFog-RainHeavy Rain
9:39 AM75.2 °F75.2 °F100 %29.68 in0.5 miWest (280°)15.0 mph29.9 mphFog-RainHeavy Rain
9:44 AM75.2 °F75.2 °F100 %29.67 in0.8 miWNW (290°)19.6 mph27.6 mphRainHeavy Rain
9:44 AM75.2 °F75.2 °F100 %29.67 in0.8 miWNW (290°)19.6 mph27.6 mphRainHeavy Rain
9:49 AM75.2 °F73.4 °F94 %29.68 in0.5 miWest (280°)18.4 mph27.6 mphFog-RainHeavy Rain
9:49 AM75.2 °F73.4 °F94 %29.68 in0.5 miWest (280°)18.4 mph27.6 mphFog-RainHeavy Rain
9:56 AM75.2 °F75.2 °F100 %29.64 in0.2 miWNW (290°)18.4 mph27.6 mphFog-RainHeavy Rain
9:56 AM75.2 °F75.2 °F100 %29.64 in0.2 miWNW (290°)18.4 mph27.6 mphFog-RainHeavy Rain
10:16 AM75.2 °F75.2 °F100 %29.66 in0.5 miWest (280°)17.3 mph28.8 mphFog-RainHeavy Rain
10:16 AM75.2 °F75.2 °F100 %29.66 in0.5 miWest (280°)17.3 mph28.8 mphFog-RainHeavy Rain
10:21 AM75.2 °F75.2 °F100 %29.67 in0.2 miWest (280°)12.7 mph23.0 mphFog-RainHeavy Rain
10:21 AM75.2 °F75.2 °F100 %29.67 in0.2 miWest (280°)12.7 mph23.0 mphFog-RainHeavy Rain
10:36 AM77.0 °F75.2 °F94 %29.65 in1.0 miWest (280°)15.0 mph24.2 mphRainHeavy Rain
10:36 AM77.0 °F75.2 °F94 %29.65 in1.0 miWest (280°)15.0 mph24.2 mphRainHeavy Rain
10:41 AM77.0 °F75.2 °F94 %29.66 in0.8 miWest (280°)11.5 mph24.2 mphRainHeavy Rain
10:41 AM77.0 °F75.2 °F94 %29.66 in0.8 miWest (280°)11.5 mph24.2 mphRainHeavy Rain
10:46 AM77.0 °F75.2 °F94 %29.65 in0.2 miWest (280°)18.4 mph26.5 mphFog-RainHeavy Rain
10:46 AM77.0 °F75.2 °F94 %29.65 in0.2 miWest (280°)18.4 mph26.5 mphFog-RainHeavy Rain
10:51 AM77.0 °F75.2 °F94 %29.65 in0.2 miWest (280°)20.7 mph26.5 mphFog-RainHeavy Rain
10:51 AM77.0 °F75.2 °F94 %29.65 in0.2 miWest (280°)20.7 mph26.5 mphFog-RainHeavy Rain
10:56 AM77.0 °F75.2 °F94 %29.64 in0.2 miWest (280°)13.8 mph26.5 mphFog-RainHeavy Rain
10:56 AM77.0 °F75.2 °F94 %29.64 in0.2 miWest (280°)13.8 mph26.5 mphFog-RainHeavy Rain
10:58 AM76.5 °F75.2 °F96 %29.61 in0.2 miWest (280°)12.7 mph26.5 mph1.75 inFog-RainHeavy Rain
10:58 AM76.5 °F75.2 °F96 %29.61 in0.2 miWest (280°)12.7 mph26.5 mph1.75 inFog-RainHeavy Rain
11:03 AM75.2 °F75.2 °F100 %29.64 in0.2 miWest (280°)18.4 mph23.0 mphFog-RainHeavy Rain
11:03 AM75.2 °F75.2 °F100 %29.64 in0.2 miWest (280°)18.4 mph23.0 mphFog-RainHeavy Rain
11:08 AM75.2 °F75.2 °F100 %29.64 in0.5 miWNW (290°)20.7 mph28.8 mphFog-RainHeavy Rain
11:08 AM75.2 °F75.2 °F100 %29.64 in0.5 miWNW (290°)20.7 mph28.8 mphFog-RainHeavy Rain
11:13 AM75.2 °F75.2 °F100 %29.63 in0.5 miWNW (290°)23.0 mph28.8 mphFog-RainHeavy Rain
11:13 AM75.2 °F75.2 °F100 %29.63 in0.5 miWNW (290°)23.0 mph28.8 mphFog-RainHeavy Rain
11:18 AM75.2 °F75.2 °F100 %29.63 in1.0 miWNW (290°)24.2 mph29.9 mphRainHeavy Rain
11:18 AM75.2 °F75.2 °F100 %29.63 in1.0 miWNW (290°)24.2 mph29.9 mphRainHeavy Rain
11:23 AM0.0 °F0.0 °F0.00 inWest (280°)18.4 mph34.5 mph
11:23 AM0.0 °F0.0 °F0.00 inWest (280°)18.4 mph34.5 mph
11:24 AM77.0 °F75.2 °F94 %29.64 in2.5 miWNW (290°)18.4 mph34.5 mphRainRain
11:24 AM77.0 °F75.2 °F94 %29.64 in2.5 miWNW (290°)18.4 mph34.5 mphRainRain
11:29 AM77.0 °F75.2 °F94 %29.63 in1.5 miWNW (290°)20.7 mph32.2 mphRainHeavy Rain
11:29 AM77.0 °F75.2 °F94 %29.63 in1.5 miWNW (290°)20.7 mph32.2 mphRainHeavy Rain
11:34 AM77.0 °F75.2 °F94 %29.63 in1.0 miWNW (290°)17.3 mph31.1 mphRainLight Rain
11:34 AM77.0 °F75.2 °F94 %29.63 in1.0 miWNW (290°)17.3 mph31.1 mphRainLight Rain
11:39 AM77.0 °F75.2 °F94 %29.64 in0.8 miWNW (290°)20.7 mph34.5 mphRainHeavy Rain
11:39 AM77.0 °F75.2 °F94 %29.64 in0.8 miWNW (290°)20.7 mph34.5 mphRainHeavy Rain
11:44 AM77.0 °F75.2 °F94 %29.63 in0.5 miWNW (290°)20.7 mph35.7 mphFog-RainHeavy Rain
11:44 AM77.0 °F75.2 °F94 %29.63 in0.5 miWNW (290°)20.7 mph35.7 mphFog-RainHeavy Rain
11:49 AM77.0 °F75.2 °F94 %29.64 in0.8 miWNW (290°)18.4 mph35.7 mphRainLight Rain
11:49 AM77.0 °F75.2 °F94 %29.64 in0.8 miWNW (290°)18.4 mph35.7 mphRainLight Rain
11:54 AM77.0 °F75.2 °F94 %29.64 in1.5 miWNW (290°)18.4 mph35.7 mphRainRain
11:54 AM77.0 °F75.2 °F94 %29.64 in1.5 miWNW (290°)18.4 mph35.7 mphRainRain
11:58 AM76.1 °F74.7 °F95 %29.60 in1.8 miWNW (290°)15.0 mph33.4 mph0.51 inRainRain
11:58 AM76.1 °F74.7 °F95 %29.60 in1.8 miWNW (290°)15.0 mph33.4 mph0.51 inRainRain
12:03 PM75.2 °F75.2 °F100 %29.64 in1.0 miWNW (290°)16.1 mph27.6 mphRainHeavy Rain
12:03 PM75.2 °F75.2 °F100 %29.64 in1.0 miWNW (290°)16.1 mph27.6 mphRainHeavy Rain
12:08 PM75.2 °F75.2 °F100 %29.63 in0.8 miWNW (290°)18.4 mph28.8 mphRainHeavy Rain
12:08 PM75.2 °F75.2 °F100 %29.63 in0.8 miWNW (290°)18.4 mph28.8 mphRainHeavy Rain
12:13 PM77.0 °F75.2 °F94 %29.64 in0.5 miWNW (290°)15.0 mph28.8 mphFog-RainHeavy Rain
12:13 PM77.0 °F75.2 °F94 %29.64 in0.5 miWNW (290°)15.0 mph28.8 mphFog-RainHeavy Rain
12:18 PM75.2 °F75.2 °F100 %29.64 in0.2 miWNW (290°)15.0 mph27.6 mphFog-RainHeavy Rain
12:18 PM75.2 °F75.2 °F100 %29.64 in0.2 miWNW (290°)15.0 mph27.6 mphFog-RainHeavy Rain
12:23 PM75.2 °F75.2 °F100 %29.63 in0.5 miWNW (290°)15.0 mph27.6 mphFog-RainLight Rain
12:23 PM75.2 °F75.2 °F100 %29.63 in0.5 miWNW (290°)15.0 mph27.6 mphFog-RainLight Rain
12:28 PM75.2 °F75.2 °F100 %29.63 in0.8 miWNW (290°)9.2 mph24.2 mphRainHeavy Rain
12:28 PM75.2 °F75.2 °F100 %29.63 in0.8 miWNW (290°)9.2 mph24.2 mphRainHeavy Rain
12:33 PM75.2 °F73.4 °F94 %29.63 in0.5 miWNW (300°)10.4 mph24.2 mphFog-RainHeavy Rain
12:33 PM75.2 °F73.4 °F94 %29.63 in0.5 miWNW (300°)10.4 mph24.2 mphFog-RainHeavy Rain
12:49 PM75.2 °F73.4 °F94 %29.64 in0.5 miWNW (290°)16.1 mph23.0 mphFog-RainHeavy Rain
12:49 PM75.2 °F73.4 °F94 %29.64 in0.5 miWNW (290°)16.1 mph23.0 mphFog-RainHeavy Rain
12:54 PM75.2 °F73.4 °F94 %29.64 in1.0 miVariable6.9 mph23.0 mphRainRain
12:54 PM75.2 °F73.4 °F94 %29.64 in1.0 miVariable6.9 mph23.0 mphRainRain
12:58 PM75.2 °F73.4 °F94 %29.61 in1.5 miVariable6.9 mph23.0 mph0.62 inRainLight Rain
12:58 PM75.2 °F73.4 °F94 %29.61 in1.5 miVariable6.9 mph23.0 mph0.62 inRainLight Rain
1:03 PM75.2 °F73.4 °F94 %29.64 in0.5 miVariable3.5 mph21.9 mphFog-RainHeavy Rain
1:03 PM75.2 °F73.4 °F94 %29.64 in0.5 miVariable3.5 mph21.9 mphFog-RainHeavy Rain
1:08 PM75.2 °F73.4 °F94 %29.62 in0.5 miVariable2.3 mphFog-RainLight Rain
1:08 PM75.2 °F73.4 °F94 %29.62 in0.5 miVariable2.3 mphFog-RainLight Rain
1:13 PM75.2 °F73.4 °F94 %29.63 in1.8 miVariable3.5 mphRainLight Rain
1:13 PM75.2 °F73.4 °F94 %29.63 in1.8 miVariable3.5 mphRainLight Rain
1:18 PM75.2 °F73.4 °F94 %29.63 in7.0 miNW (310°)1.2 mphRainRain
1:18 PM75.2 °F73.4 °F94 %29.63 in7.0 miNW (310°)1.2 mphRainRain
1:26 PM75.2 °F73.4 °F94 %29.64 in1.2 miVariable5.8 mphRainHeavy Rain
1:26 PM75.2 °F73.4 °F94 %29.64 in1.2 miVariable5.8 mphRainHeavy Rain
1:31 PM75.2 °F73.4 °F94 %29.63 in0.8 miWNW (290°)3.5 mphRainHeavy Rain
1:31 PM75.2 °F73.4 °F94 %29.63 in0.8 miWNW (290°)3.5 mphRainHeavy Rain
1:41 PM75.2 °F75.2 °F100 %29.65 in0.8 miVariable6.9 mph17.3 mphRainHeavy Rain
1:41 PM75.2 °F75.2 °F100 %29.65 in0.8 miVariable6.9 mph17.3 mphRainHeavy Rain
1:50 PM75.2 °F73.4 °F94 %29.64 in3.0 miVariable1.2 mphOvercast
1:50 PM75.2 °F73.4 °F94 %29.64 in3.0 miVariable1.2 mphOvercast
1:55 PM75.2 °F73.4 °F94 %29.65 in1.2 miCalmRainHeavy Rain
1:55 PM75.2 °F73.4 °F94 %29.65 in1.2 miCalmRainHeavy Rain
1:58 PM75.2 °F73.4 °F94 %29.62 in1.0 miVariable1.2 mph0.63 inRainHeavy Rain
1:58 PM75.2 °F73.4 °F94 %29.62 in1.0 miVariable1.2 mph0.63 inRainHeavy Rain
2:03 PM75.2 °F73.4 °F94 %29.65 in0.5 miCalmFog-RainHeavy Rain
2:03 PM75.2 °F73.4 °F94 %29.65 in0.5 miCalmFog-RainHeavy Rain
2:08 PM75.2 °F73.4 °F94 %29.66 in0.8 miNNW (340°)1.2 mphRainHeavy Rain
2:08 PM75.2 °F73.4 °F94 %29.66 in0.8 miNNW (340°)1.2 mphRainHeavy Rain
2:18 PM75.2 °F73.4 °F94 %29.66 in0.2 miSSW (210°)18.4 mph29.9 mphFog-RainHeavy Rain
2:18 PM75.2 °F73.4 °F94 %29.66 in0.2 miSSW (210°)18.4 mph29.9 mphFog-RainHeavy Rain
2:23 PM75.2 °F73.4 °F94 %29.65 in0.2 miSSW (210°)18.4 mph32.2 mphFog-RainHeavy Rain
2:23 PM75.2 °F73.4 °F94 %29.65 in0.2 miSSW (210°)18.4 mph32.2 mphFog-RainHeavy Rain
2:33 PM75.2 °F73.4 °F94 %29.66 in0.2 miSW (220°)19.6 mph32.2 mphFog-RainHeavy Rain
2:33 PM75.2 °F73.4 °F94 %29.66 in0.2 miSW (220°)19.6 mph32.2 mphFog-RainHeavy Rain
2:38 PM75.2 °F73.4 °F94 %29.67 in0.5 miSSW (210°)16.1 mph32.2 mphFog-RainHeavy Rain
2:38 PM75.2 °F73.4 °F94 %29.67 in0.5 miSSW (210°)16.1 mph32.2 mphFog-RainHeavy Rain
2:48 PM75.2 °F73.4 °F94 %29.67 in0.5 miSW (220°)20.7 mph28.8 mphFog-RainHeavy Rain
2:48 PM75.2 °F73.4 °F94 %29.67 in0.5 miSW (220°)20.7 mph28.8 mphFog-RainHeavy Rain
2:53 PM75.2 °F73.4 °F94 %29.68 in0.2 miSSW (210°)20.7 mph29.9 mphFog-RainHeavy Rain
2:53 PM75.2 °F73.4 °F94 %29.68 in0.2 miSSW (210°)20.7 mph29.9 mphFog-RainHeavy Rain
2:58 PM75.2 °F73.4 °F94 %29.65 in0.2 miSSW (210°)20.7 mph29.9 mph1.85 inFog-RainHeavy Rain
2:58 PM75.2 °F73.4 °F94 %29.65 in0.2 miSSW (210°)20.7 mph29.9 mph1.85 inFog-RainHeavy Rain
3:03 PM73.4 °F71.6 °F94 %29.68 in0.2 miSSW (210°)16.1 mph29.9 mphFog-RainHeavy Rain
3:03 PM73.4 °F71.6 °F94 %29.68 in0.2 miSSW (210°)16.1 mph29.9 mphFog-RainHeavy Rain
3:08 PM73.4 °F73.4 °F100 %29.68 in0.5 miSSW (210°)17.3 mph29.9 mphFog-RainHeavy Rain
3:08 PM73.4 °F73.4 °F100 %29.68 in0.5 miSSW (210°)17.3 mph29.9 mphFog-RainHeavy Rain
3:13 PM73.4 °F73.4 °F100 %29.68 in0.8 miSSW (210°)19.6 mph29.9 mphRainHeavy Rain
3:13 PM73.4 °F73.4 °F100 %29.68 in0.8 miSSW (210°)19.6 mph29.9 mphRainHeavy Rain
3:18 PM75.2 °F73.4 °F94 %29.67 in1.2 miSSW (210°)19.6 mph31.1 mphRainHeavy Rain
3:18 PM75.2 °F73.4 °F94 %29.67 in1.2 miSSW (210°)19.6 mph31.1 mphRainHeavy Rain
3:23 PM75.2 °F73.4 °F94 %29.67 in1.5 miSSW (210°)20.7 mph31.1 mphRainHeavy Rain
3:23 PM75.2 °F73.4 °F94 %29.67 in1.5 miSSW (210°)20.7 mph31.1 mphRainHeavy Rain
3:28 PM75.2 °F73.4 °F94 %29.67 in2.5 miSSW (210°)23.0 mph31.1 mphRainHeavy Rain
3:28 PM75.2 °F73.4 °F94 %29.67 in2.5 miSSW (210°)23.0 mph31.1 mphRainHeavy Rain
3:38 PM75.2 °F73.4 °F94 %29.65 in2.0 miSSW (210°)18.4 mph31.1 mphRainHeavy Rain
3:38 PM75.2 °F73.4 °F94 %29.65 in2.0 miSSW (210°)18.4 mph31.1 mphRainHeavy Rain
3:43 PM73.4 °F71.6 °F94 %29.66 in2.0 miSW (220°)20.7 mph28.8 mphRainRain
3:43 PM73.4 °F71.6 °F94 %29.66 in2.0 miSW (220°)20.7 mph28.8 mphRainRain
3:48 PM73.4 °F71.6 °F94 %29.67 in3.0 miSSW (210°)20.7 mph31.1 mphRainRain
3:48 PM73.4 °F71.6 °F94 %29.67 in3.0 miSSW (210°)20.7 mph31.1 mphRainRain
3:53 PM73.4 °F71.6 °F94 %29.66 in4.0 miSW (220°)20.7 mph36.8 mphRainHeavy Rain
3:53 PM73.4 °F71.6 °F94 %29.66 in4.0 miSW (220°)20.7 mph36.8 mphRainHeavy Rain
3:58 PM74.1 °F72.5 °F95 %29.63 in4.0 miSW (220°)18.4 mph36.8 mph0.82 inRainHeavy Rain
3:58 PM74.1 °F72.5 °F95 %29.63 in4.0 miSW (220°)18.4 mph36.8 mph0.82 inRainHeavy Rain
4:03 PM73.4 °F71.6 °F94 %29.66 in4.0 miSW (220°)18.4 mph28.8 mphRainHeavy Rain
4:03 PM73.4 °F71.6 °F94 %29.66 in4.0 miSW (220°)18.4 mph28.8 mphRainHeavy Rain
4:18 PM75.2 °F73.4 °F94 %29.65 in10.0 miSSW (210°)18.4 mph27.6 mphMostly Cloudy
4:18 PM75.2 °F73.4 °F94 %29.65 in10.0 miSSW (210°)18.4 mph27.6 mphMostly Cloudy
4:19 PM75.2 °F73.4 °F94 %29.64 in10.0 miSW (220°)16.1 mph27.6 mphRainLight Rain
4:19 PM75.2 °F73.4 °F94 %29.64 in10.0 miSW (220°)16.1 mph27.6 mphRainLight Rain
4:22 PM75.2 °F73.4 °F94 %29.65 in10.0 miSW (220°)18.4 mph25.3 mphScattered Clouds
4:22 PM75.2 °F73.4 °F94 %29.65 in10.0 miSW (220°)18.4 mph25.3 mphScattered Clouds
4:30 PM75.2 °F73.4 °F94 %29.63 in10.0 miSSW (210°)17.3 mph26.5 mphRainRain
4:30 PM75.2 °F73.4 °F94 %29.63 in10.0 miSSW (210°)17.3 mph26.5 mphRainRain
4:55 PM75.2 °F73.4 °F94 %29.64 in6.0 miSW (220°)16.1 mph27.6 mphRainRain
4:55 PM75.2 °F73.4 °F94 %29.64 in6.0 miSW (220°)16.1 mph27.6 mphRainRain
4:58 PM74.8 °F72.7 °F93 %29.61 in5.0 miSSW (210°)16.1 mph26.5 mph0.11 inRainRain
4:58 PM74.8 °F72.7 °F93 %29.61 in5.0 miSSW (210°)16.1 mph26.5 mph0.11 inRainRain
5:03 PM75.2 °F73.4 °F94 %29.64 in5.0 miSW (220°)15.0 mph26.5 mphRainRain
5:03 PM75.2 °F73.4 °F94 %29.64 in5.0 miSW (220°)15.0 mph26.5 mphRainRain
5:13 PM75.2 °F73.4 °F94 %29.63 in6.0 miSW (220°)15.0 mph25.3 mphRainLight Rain
5:13 PM75.2 °F73.4 °F94 %29.63 in6.0 miSW (220°)15.0 mph25.3 mphRainLight Rain
5:23 PM75.2 °F73.4 °F94 %29.62 in5.0 miSW (220°)12.7 mph24.2 mphRainRain
5:23 PM75.2 °F73.4 °F94 %29.62 in5.0 miSW (220°)12.7 mph24.2 mphRainRain
5:33 PM75.2 °F73.4 °F94 %29.63 in6.0 miSW (220°)16.1 mph33.4 mphOvercast
5:33 PM75.2 °F73.4 °F94 %29.63 in6.0 miSW (220°)16.1 mph33.4 mphOvercast
5:40 PM75.2 °F73.4 °F94 %29.64 in7.0 miSSW (210°)17.3 mph25.3 mphRainLight Rain
5:40 PM75.2 °F73.4 °F94 %29.64 in7.0 miSSW (210°)17.3 mph25.3 mphRainLight Rain
5:50 PM75.2 °F73.4 °F94 %29.65 in9.0 miSW (220°)16.1 mph26.5 mphRainLight Rain
5:50 PM75.2 °F73.4 °F94 %29.65 in9.0 miSW (220°)16.1 mph26.5 mphRainLight Rain
5:55 PM75.2 °F73.4 °F94 %29.66 in10.0 miSW (220°)15.0 mph26.5 mphRainLight Rain
5:55 PM75.2 °F73.4 °F94 %29.66 in10.0 miSW (220°)15.0 mph26.5 mphRainLight Rain
5:58 PM75.7 °F73.2 °F92 %29.64 in10.0 miSSW (210°)18.4 mph26.5 mph0.07 inRainLight Rain
5:58 PM75.7 °F73.2 °F92 %29.64 in10.0 miSSW (210°)18.4 mph26.5 mph0.07 inRainLight Rain
6:03 PM75.2 °F73.4 °F94 %29.68 in10.0 miSW (220°)18.4 mph24.2 mphRainLight Rain
6:03 PM75.2 °F73.4 °F94 %29.68 in10.0 miSW (220°)18.4 mph24.2 mphRainLight Rain
6:07 PM75.2 °F73.4 °F94 %29.68 in10.0 miSW (220°)16.1 mph26.5 mphScattered Clouds
6:07 PM75.2 °F73.4 °F94 %29.68 in10.0 miSW (220°)16.1 mph26.5 mphScattered Clouds
6:12 PM75.2 °F73.4 °F94 %29.68 in10.0 miSSW (210°)17.3 mph28.8 mphRainLight Rain
6:12 PM75.2 °F73.4 °F94 %29.68 in10.0 miSSW (210°)17.3 mph28.8 mphRainLight Rain
6:27 PM75.2 °F73.4 °F94 %29.69 in8.0 miSSW (210°)10.4 mph19.6 mphRainLight Rain
6:27 PM75.2 °F73.4 °F94 %29.69 in8.0 miSSW (210°)10.4 mph19.6 mphRainLight Rain
6:32 PM75.2 °F73.4 °F94 %29.70 in8.0 miSW (220°)11.5 mphMostly Cloudy
6:32 PM75.2 °F73.4 °F94 %29.70 in8.0 miSW (220°)11.5 mphMostly Cloudy
6:39 PM0.0 °F0.0 °F0.00 inSSW (210°)5.8 mph
6:39 PM0.0 °F0.0 °F0.00 inSSW (210°)5.8 mph
6:42 PM75.2 °F73.4 °F94 %29.71 in9.0 miSSW (210°)8.1 mphRainRain
6:42 PM75.2 °F73.4 °F94 %29.71 in9.0 miSSW (210°)8.1 mphRainRain
6:58 PM75.2 °F73.0 °F93 %29.69 in10.0 miSSW (210°)10.4 mph0.06 inRainLight Rain
6:58 PM75.2 °F73.0 °F93 %29.69 in10.0 miSSW (210°)10.4 mph0.06 inRainLight Rain
7:00 PM0.0 °F0.0 °F0.00 inSSW (210°)8.1 mph
7:00 PM0.0 °F0.0 °F0.00 inSSW (210°)8.1 mph
7:01 PM75.2 °F73.4 °F94 %29.71 in10.0 miSSW (210°)8.1 mphRainLight Rain
7:01 PM75.2 °F73.4 °F94 %29.71 in10.0 miSSW (210°)8.1 mphRainLight Rain
7:11 PM75.2 °F73.4 °F94 %29.72 in10.0 miSSW (210°)11.5 mph17.3 mphRainLight Rain
7:11 PM75.2 °F73.4 °F94 %29.72 in10.0 miSSW (210°)11.5 mph17.3 mphRainLight Rain
7:30 PM75.2 °F73.4 °F94 %29.72 in10.0 miSSW (210°)13.8 mph18.4 mphRainLight Rain
7:30 PM75.2 °F73.4 °F94 %29.72 in10.0 miSSW (210°)13.8 mph18.4 mphRainLight Rain
7:40 PM75.2 °F73.4 °F94 %29.73 in10.0 miSSW (210°)10.4 mph19.6 mphRainLight Rain
7:40 PM75.2 °F73.4 °F94 %29.73 in10.0 miSSW (210°)10.4 mph19.6 mphRainLight Rain
7:58 PM75.7 °F73.0 °F91 %29.73 in10.0 miSSW (210°)5.8 mph20.7 mph0.03 inRainLight Rain
7:58 PM75.7 °F73.0 °F91 %29.73 in10.0 miSSW (210°)5.8 mph20.7 mph0.03 inRainLight Rain
8:12 PM75.2 °F73.4 °F94 %29.74 in10.0 miSSW (210°)8.1 mphScattered Clouds
8:12 PM75.2 °F73.4 °F94 %29.74 in10.0 miSSW (210°)8.1 mphScattered Clouds
8:27 PM77.0 °F73.4 °F89 %29.75 in9.0 miSSW (210°)9.2 mphMostly Cloudy
8:27 PM77.0 °F73.4 °F89 %29.75 in9.0 miSSW (210°)9.2 mphMostly Cloudy
8:37 PM77.0 °F73.4 °F89 %29.76 in8.0 miSSW (210°)8.1 mphMostly Cloudy
8:37 PM77.0 °F73.4 °F89 %29.76 in8.0 miSSW (210°)8.1 mphMostly Cloudy
8:42 PM77.0 °F73.4 °F89 %29.76 in10.0 miSSW (210°)6.9 mphScattered Clouds
8:42 PM77.0 °F73.4 °F89 %29.76 in10.0 miSSW (210°)6.9 mphScattered Clouds
8:51 PM77.0 °F73.4 °F89 %29.77 in10.0 miSSW (210°)8.1 mphRainLight Rain
8:51 PM77.0 °F73.4 °F89 %29.77 in10.0 miSSW (210°)8.1 mphRainLight Rain
8:58 PM76.1 °F73.9 °F93 %29.77 in7.0 miSSW (210°)9.2 mph0.04 inRainLight Rain
8:58 PM76.1 °F73.9 °F93 %29.77 in7.0 miSSW (210°)9.2 mph0.04 inRainLight Rain
9:05 PM75.2 °F73.4 °F94 %29.76 in7.0 miSSW (210°)9.2 mphScattered Clouds
9:05 PM75.2 °F73.4 °F94 %29.76 in7.0 miSSW (210°)9.2 mphScattered Clouds
9:21 PM75.2 °F73.4 °F94 %29.76 in10.0 miSSW (210°)9.2 mphLight Drizzle
9:21 PM75.2 °F73.4 °F94 %29.76 in10.0 miSSW (210°)9.2 mphLight Drizzle
9:30 PM75.2 °F73.4 °F94 %29.78 in10.0 miSSW (210°)9.2 mphPartly Cloudy
9:30 PM75.2 °F73.4 °F94 %29.78 in10.0 miSSW (210°)9.2 mphPartly Cloudy
9:43 PM75.2 °F73.4 °F94 %29.79 in10.0 miSSW (210°)10.4 mphRainLight Rain
9:43 PM75.2 °F73.4 °F94 %29.79 in10.0 miSSW (210°)10.4 mphRainLight Rain
9:58 PM75.9 °F73.4 °F92 %29.80 in6.0 miSSW (210°)5.8 mph0.06 inRainHeavy Rain
9:58 PM75.9 °F73.4 °F92 %29.80 in6.0 miSSW (210°)5.8 mph0.06 inRainHeavy Rain
10:23 PM75.2 °F73.4 °F94 %29.80 in3.0 miSSW (210°)5.8 mphRainLight Rain
10:23 PM75.2 °F73.4 °F94 %29.80 in3.0 miSSW (210°)5.8 mphRainLight Rain
10:25 PM75.2 °F73.4 °F94 %29.80 in2.5 miSSW (210°)5.8 mphOvercast
10:25 PM75.2 °F73.4 °F94 %29.80 in2.5 miSSW (210°)5.8 mphOvercast
10:30 PM75.2 °F73.4 °F94 %29.80 in4.0 miSSW (210°)6.9 mphOvercast
10:30 PM75.2 °F73.4 °F94 %29.80 in4.0 miSSW (210°)6.9 mphOvercast
10:35 PM75.2 °F73.4 °F94 %29.80 in10.0 miSSW (210°)5.8 mphRainLight Rain
10:35 PM75.2 °F73.4 °F94 %29.80 in10.0 miSSW (210°)5.8 mphRainLight Rain
10:44 PM75.2 °F73.4 °F94 %29.80 in10.0 miSW (220°)10.4 mphMostly Cloudy
10:44 PM75.2 °F73.4 °F94 %29.80 in10.0 miSW (220°)10.4 mphMostly Cloudy
10:49 PM75.2 °F73.4 °F94 %29.80 in10.0 miSSW (210°)9.2 mphScattered Clouds
10:49 PM75.2 °F73.4 °F94 %29.80 in10.0 miSSW (210°)9.2 mphScattered Clouds
10:58 PM75.7 °F73.4 °F92 %29.79 in10.0 miSSW (210°)10.4 mph0.15 inPartly Cloudy
10:58 PM75.7 °F73.4 °F92 %29.79 in10.0 miSSW (210°)10.4 mph0.15 inPartly Cloudy
11:03 PM75.2 °F73.4 °F94 %29.80 in10.0 miSSW (210°)10.4 mphRainLight Rain
11:03 PM75.2 °F73.4 °F94 %29.80 in10.0 miSSW (210°)10.4 mphRainLight Rain
11:13 PM75.2 °F73.4 °F94 %29.80 in10.0 miSSW (210°)6.9 mphPartly Cloudy
11:13 PM75.2 °F73.4 °F94 %29.80 in10.0 miSSW (210°)6.9 mphPartly Cloudy
11:58 PM75.4 °F73.0 °F92 %29.81 in10.0 miSSW (210°)5.8 mph0.00 inMostly Cloudy
11:58 PM75.4 °F73.0 °F92 %29.81 in10.0 miSSW (210°)5.8 mph0.00 inMostly Cloudy
Hourly data recorded from PGUA, located miles away from Mangilao, Guam







STORIES FROM OUR PARTNERS